This is the latest recevied weather packets stored in our database for station/object KB1WCR. If no packets are shown the sender has not sent any weather packets the latest 10 day(s).
| Time | Temp. | Humidity | Pressure | Rain* | Wind** | Luminosity | Snow |
|---|---|---|---|---|---|---|---|
| 1778001211 | 25° C | 52% | 1005.5 hPa | 0 mm | - | 675 W/m² | - |
| 1778000908 | 25.56° C | 51% | 1005.7 hPa | 0 mm | - | 671 W/m² | - |
| 1778000604 | 25° C | 55% | 1005.8 hPa | 0 mm | - | 706 W/m² | - |
| 1778000300 | 25° C | 53% | 1006 hPa | 0 mm | - | 729 W/m² | - |
| 1777999996 | 25° C | 53% | 1005.9 hPa | 0 mm | - | 740 W/m² | - |
| 1777999691 | 25° C | 50% | 1006 hPa | 0 mm | - | 736 W/m² | - |
| 1777999389 | 26.11° C | 50% | 1006.1 hPa | 0 mm | - | 723 W/m² | - |
| 1777999087 | 25.56° C | 48% | 1006.3 hPa | 0 mm | - | 759 W/m² | - |
| 1777998785 | 25.56° C | 48% | 1006.3 hPa | 0 mm | - | 767 W/m² | - |
| 1777998483 | 25.56° C | 50% | 1006.3 hPa | 0 mm | - | 748 W/m² | - |
| 1777998179 | 25° C | 49% | 1006.5 hPa | 0 mm | - | 755 W/m² | - |
| 1777997876 | 25° C | 50% | 1006.8 hPa | 0 mm | - | 754 W/m² | - |
| 1777997573 | 24.44° C | 50% | 1006.8 hPa | 0 mm | - | 742 W/m² | - |
| 1777997271 | 24.44° C | 51% | 1007 hPa | 0 mm | - | 757 W/m² | - |
| 1777996968 | 23.89° C | 53% | 1007.2 hPa | 0 mm | - | 742 W/m² | - |
| 1777996665 | 23.89° C | 52% | 1007.2 hPa | 0 mm | - | 656 W/m² | - |
| 1777996361 | 23.89° C | 51% | 1007.3 hPa | 0 mm | - | 724 W/m² | - |
| 1777996057 | 23.33° C | 53% | 1007.1 hPa | 0 mm | - | 708 W/m² | - |
| 1777995754 | 23.89° C | 50% | 1007.3 hPa | 0 mm | - | 703 W/m² | - |
| 1777995450 | 23.89° C | 53% | 1007.4 hPa | 0 mm | - | 725 W/m² | - |
| 1777995147 | 23.33° C | 54% | 1007.6 hPa | 0 mm | - | 707 W/m² | - |
| 1777994844 | 23.33° C | 50% | 1007.5 hPa | 0 mm | - | 707 W/m² | - |
| 1777994541 | 23.33° C | 51% | 1007.6 hPa | 0 mm | - | 723 W/m² | - |
| 1777994235 | 22.78° C | 54% | 1007.6 hPa | 0 mm | - | 715 W/m² | - |
| 1777993933 | 23.33° C | 52% | 1008 hPa | 0 mm | - | 710 W/m² | - |
* Rain latest hour (hover to see other rain measurements)
** Current wind speed in m/s (hover to see current wind gust speed)